Powrót do katalogu

DMSP 5D-2 F13 DEB

AktywnySSO
NORAD 40610·DEBRIS·🇺🇸 United States

Wystrzelony Mar 24, 1995 z Vandenberg Space Force Base

Loading…

Następne Przeloty (najbliższe 24 godziny)

TLE

ŚwieżeSource: Space-Track

Epoka: Sep 14, 2026, 08:17 UTC

1 40610U 95015FH  26257.34533529  .00003086  00000-0  94491-3 0  9994
2 40610  98.6867 299.7501 0026129 133.0685 227.2697 14.42284798592365

Śledź DMSP 5D-2 F13 DEB w czasie rzeczywistym z AllMySat

Download on the App Store